1st Responders/1st Detectors/Storm Spotters Weather Summary for Carroll County, KY

Forecast Maps


Reg. NEXRAD Animation


National Fire Danger: Day 1 & 2 Map

Current NWS Watch/Warnings

SPC Convective Day 1 Outlook


Day 2 Outlook

(Click images to enlarge|Page will refresh every 5 minutes)
UK Ag. Weather Center Desktop Severe Weather Service[HERE]
Carroll County, KY Hazardous Weather Outlook Webcast
(9 AM to 9 PM Mon-Fri)
[Fast]
[Dial-up]


UKAWC 1st Detectors/1st Responders Precision Weather Forecast For CARROLL County, Kentucky
(based on the NWS County Digital Forecast)

ISSUED AT 18:00 UTC ON TUESDAY NOV 21 2017
DAY TUESDAY
EDT 3HR 3P 4P 5P 6P 7P
MAX/MIN -- -- -- -- 54°
TEMP 52° 54° 52° 49° 45°
SKY COVER 31% 41% 52% 63% 72%
Clouds
DEW PT 34° 34° 36° 36° 36°
RH 48% 48% 51% 58% 67%
POP 12HR -- -- -- -- --
RAIN/SNOW (liq.equ) -- -- -- -- --
SNOWFALL -- -- -- -- --
WIND SPEED(MPH) 14 13 10 9 8
WIND Gust(MPH) 17 15 14 13 9
WIND DIR SW SW SW SW SW
DEW -- -- -- -- Lgt Dew
HeatIndex 52 54 52 49 45
WIND CHILL -- -- -- -- 41°
SPRAY COND
DRY COND
LIVESTOCK COLDSTRESS



DAY WEDNESDAY THURSDAY FRIDAY SATURDAY SUNDAY MONDAY
EDT 6HR 8P 9P 10P 11P MIDN 1A 2A 3A 4A 5A 6A 7A 8A 9A 10A 11A NOON 1P 2P 3P 4P 5P 6P 7P 8P 9P 10P 11P MIDN 1A 2A 5A 8A 11A 2P 5P 8P 2A 8A 2P 8P 2A 8A 2P 8P 2A 8A 2P 8P 2A 8A 2P 8P
MAX/MIN -- -- -- -- -- -- -- -- -- -- -- -- 29° -- -- -- -- -- -- -- -- -- -- 40° -- -- -- -- -- -- -- -- 27° -- -- 43° -- -- 29° 52° -- -- 40° 52° -- -- 29° 40° -- -- 25° 41° --
TEMP 43° 41° 40° 38° 36° 36° 34° 34° 32° 31° 31° 29° 29° 29° 31° 34° 36° 38° 40° 40° 40° 40° 38° 36° 34° 34° 32° 31° 31° 31° 29° 27° 25° 34° 43° 43° 38° 32° 29° 50° 47° 43° 40° 52° 43° 36° 31° 40° 34° 29° 27° 40° 36°
SKY COVER 79% 84% 84% 79% 67% 52% 38% 30% 25% 23% 21% 19% 17% 15% 14% 13% 13% 14% 14% 14% 12% 10% 7% 5% 4% 6% 11% 16% 21% 27% 34% 57% 42% 41% 36% 32% 17% 8% 6% 6% 20% 59% 48% 29% 35% 24% 28% 32% 37% 23% 19% 16% 21%
Clouds
DEW PT 36° 36° 36° 36° 34° 31° 29° 29° 27° 27° 25° 25° 23° 23° 23° 23° 25° 25° 25° 25° 25° 25° 25° 25° 25° 25° 25° 25° 25° 23° 23° 23° 22° 25° 25° 25° 25° 25° 25° 31° 34° 34° 36° 38° 34° 29° 25° 25° 23° 22° 22° 25° 25°
RH 72% 81% 89% 92% 88% 85% 81% 81% 82% 81% 81% 81% 77% 78% 72% 64% 61% 57% 54% 52% 52% 52% 56% 64% 66% 68% 71% 75% 78% 74% 78% 85% 87% 72% 50% 48% 61% 75% 84% 47% 57% 67% 85% 58% 67% 75% 81% 54% 66% 77% 84% 52% 63%
POP 12HR 0% -- -- -- -- -- -- -- -- -- -- -- 6% -- -- -- -- -- -- -- -- -- -- -- 6% -- -- -- -- -- -- -- 0% -- -- -- 0% -- 0% -- 6% -- 10% -- 5% -- 4% -- 4% -- 1% -- 1%
RAIN/SNOW (liq.equ) 0.00in -- -- -- -- -- 0.00in -- -- -- -- -- 0.00in -- -- -- -- -- 0.00in -- -- -- -- -- 0.00in -- -- -- -- -- 0.00in -- 0.00in -- 0.00in -- 0.00in -- -- -- -- -- -- -- -- -- -- -- -- -- -- -- --
SNOWFALL 0in -- -- -- -- -- 0in -- -- -- -- -- 0in -- -- -- -- -- 0in -- -- -- -- -- 0in -- -- -- -- -- 0in -- 0in -- 0in -- 0in -- -- -- -- -- -- -- -- -- -- -- -- -- -- -- --
WIND SPEED(MPH) 7 7 7 8 9 8 8 8 7 7 7 7 7 7 7 7 7 7 6 6 6 6 6 6 5 2 2 1 0 0 0 1 0 2 6 5 2 1 1 6 7 8 7 9 7 6 7 7 6 2 1 5 5
WIND DIR W W NW NW NW NW NW N N N N N N N N N N N N N N N N N N N NE NE E E SE S SW SW SW SW SW SW S S S SW SW W W NW NW NW NW NW NW SW SW
HeatIndex 39 37 34 32 29 29 27 26 25 24 23 23 23 23 24 28 30 34 35 37 37 37 34 31 31 31 29 31 31 31 29 27 25 31 39 41 35 32 29 50 47 38 35 52 39 31 24 34 28 25 27 38 33
WIND CHILL 39° 36° 35° 32° 29° 30° 27° 27° 26° 25° 25° 22° 22° 22° 25° 28° 30° 33° 36° 36° 36° 36° 34° 31° 30° -- -- -- -- -- -- -- -- -- 39° 40° -- -- -- -- -- 38° 35° -- 39° 31° 25° 35° 29° -- -- 37° 32°
SPRAY COND
DRY COND
LIVESTOCK COLDSTRESS

Click on individual weather variable above in left-hand column (ie., TEMP, RH, QPF 12HR) to view state forecast maps






NWS 48 Hr. Forecast Maps,

Regional Hourly Observations For CARROLL County, Kentucky
Issued at 200 PM EST TUE NOV 21 2017
NORTHEAST KENTUCKY
  
CITY           SKY/WX    TMP DP  RH WIND       PRES   REMARKS
LEXINGTON      SUNNY     58  31  35 SW17G26   29.97F                  
COVINGTON      PTSUNNY   55  32  41 SW12G24   29.92F                  
FRANKFORT      SUNNY     58  29  33 SW12G22   29.95F                  


Current NOWCAST not available:
Nowcasts are not issued routinely during fair weather. Only when
precipitation or other significant weather is occuring in this county will these
forecasts be issued. Currently, there is no short term forecast in effect.


Fire Weather Forecast For CARROLL County, KY
Provided by the National Weather Service:

Issued at: Tue Nov 21 14:05:01 EST 2017

CLOUD COVER                     PCldy        PCldy       MClear
PRECIP TYPE                      None         None         None
CHANCE PRECIP (%)                   0            0            0
TEMP (24H TREND)              54 (+6)      28 (-4)           41
RH % (24H TREND)              46 (+3)     92 (+13)           50
20FTWND-AM(MPH)             SW 11 G22                      N  6
20FTWND-PM(MPH)             SW 12 G23         W  7      Lgt/Var
PRECIP AMOUNT                    0.00         0.00         0.00
PRECIP DURATION                                                
MIXING HGT(FT-AGL)               3240                      3440
TRANSPORT WND (MPH)             SW 24                      N  7
LAL                                 1            1            1
HAINES INDEX                        4            4            4

REMARKS...None.

.FORECAST FOR DAYS 3 THROUGH 7...
.WEDNESDAY NIGHT...Mostly clear. Lows in the mid 20s. Light winds. 
.THURSDAY...Mostly sunny. Highs in the mid 40s. Southwest winds around
5 mph. 
.FRIDAY...Mostly clear. Lows around 30. Highs in the lower 50s. South
winds around 5 mph. 
.SATURDAY...Partly cloudy. Lows around 40. Highs in the lower 50s. West
winds 5 to 10 mph. 
.SUNDAY...Partly cloudy. Colder. Lows around 30. Highs in the upper 30s.
Northwest winds around 5 mph. 
.MONDAY...Mostly clear. Lows in the mid 20s. Highs in the lower 40s. West
winds around 5 mph. 

SPC's Fire Weather Web Tool (Excellent!), SPC's Fire Weather Outlooks, NWS Fire Weather WEB, Fire Danger Class Map,
Keetch-Byram Drought Index, ROMAN Web, Haines Index ,
WFAS's 10-hr Dead Fuel Moist., WFAS's 100-hr Dead Fuel Moist., Probablity of Ignition, Visual blackness Map, Palmer Drought Index, HPC's Rainfall Forecast Maps


Hazardous Weather Outlook For CARROLL County, Kentucky
300 AM EST Tue Nov 21 2017

 DAY ONE  Today and Tonight.

No hazardous weather is expected at this time.

 DAYS TWO THROUGH SEVEN  Wednesday through Monday.

No hazardous weather is expected at this time.

 SPOTTER INFORMATION STATEMENT  

Spotter activation is not expected at this time.

Latest CARROLL County, Kentucky Watches, Warnings and Advisories.
Additional Drought Info.: UKAWC Drought Page, Kentucky Drought Watch


7-Day Forecast For CARROLL County, KY

THIS AFTERNOON
Partly cloudy. Highs in the mid 50s. Southwest winds 10 to 15 mph.

TONIGHT
Mostly cloudy in the evening, then becoming partly cloudy. Lows around 30. West winds 5 to 10 mph, becoming northwest after midnight.

WEDNESDAY
Mostly sunny. Colder with highs around 40. North winds 5 to 10 mph.

WEDNESDAY NIGHT
Mostly clear in the evening, then becoming partly cloudy. Lows in the upper 20s. Northeast winds around 5 mph in the evening, becoming light and variable.

THANKSGIVING DAY
Partly cloudy. Highs in the mid 40s. Southwest winds around 5 mph.

THURSDAY NIGHT
Mostly clear. Lows around 30.

FRIDAY
Sunny. Highs in the lower 50s.

FRIDAY NIGHT
Mostly clear in the evening, then becoming partly cloudy. Lows around 40.

SATURDAY
Partly cloudy. Highs in the lower 50s.

SATURDAY NIGHT
Partly cloudy in the evening, then clearing. Lows around 30.

SUNDAY
Mostly sunny in the morning, then becoming partly cloudy. Colder with highs in the upper 30s.

SUNDAY NIGHT
Partly cloudy in the evening, then clearing. Lows in the mid 20s.

MONDAY
Mostly sunny. Highs in the lower 40s.

Ag Weather Center, Department of Biosystems & Agricultural Engineering, University of Kentucky